Temperature
14 14 15 15 15 15 14 13 13 13 14 14 14 14 15 16 16 15 15 15 15 15 15 15 14 14 14 13 13 13 12 12 12 12 12 12 11 11 11 11 11 10 10 10
14 15 15 14 15 15 14 14 14 14 14 14 14 15 15 15 15 15 15 15 15 15 15 14 14 14 13 13 13 13 12 12 12 11 11 11 11 11 11 11 10 10 10 10
12 13 14 13 14 14 14 14 14 13 13 13 13 13 14 14 15 15 15 15 15 15 14 14 14 14 13 13 13 12 12 12 11 11 11 11 11 10 10 10 10 10 10 9
11 13 13 13 14 14 14 14 14 14 13 13 14 14 15 15 15 15 15 15 15 15 14 14 14 13 13 13 12 12 11 11 11 11 10 10 10 10 10 10 10 9 9 9
10 11 12 13 14 14 14 13 13 12 13 13 14 14 13 14 14 15 15 14 14 14 14 14 13 13 12 12 12 11 11 11 11 10 10 10 10 10 9 9 9 9 9 9
10 11 11 12 13 14 13 12 12 12 12 12 12 10 11 13 14 14 14 14 14 14 13 13 13 12 12 12 11 11 11 10 10 10 10 10 10 9 9 9 8 8 8 8
9 10 11 11 13 13 12 11 12 12 12 12 11 11 13 13 13 13 13 13 13 13 13 13 12 12 12 11 11 11 10 10 10 10 10 9 9 9 9 8 8 8 8 7
9 9 10 11 12 11 11 12 12 12 12 12 12 12 12 12 12 12 12 12 12 12 12 12 12 11 11 11 11 10 10 10 10 9 9 9 8 8 8 8 8 7 7 7
9 10 11 12 12 12 12 12 12 12 12 12 12 11 12 12 12 12 12 12 12 12 11 11 11 11 11 10 10 9 9 9 9 9 9 8 8 8 8 7 7 7 7 6
8 9 10 11 11 11 11 12 12 12 12 12 11 11 11 11 11 11 11 11 11 11 11 10 10 10 10 10 9 9 9 9 9 8 8 8 8 7 7 7 7 6 6 6
8 8 10 10 11 11 11 11 11 11 11 11 11 11 11 11 11 10 10 10 10 10 10 10 10 9 9 9 9 9 8 8 8 8 8 7 7 7 7 6 6 6 6 6
8 9 8 9 10 10 10 10 10 10 10 10 10 10 10 10 10 10 10 10 10 10 9 9 9 9 9 9 8 8 8 8 7 7 7 7 6 6 6 6 5 5 5 5
10 10 10 10 10 10 10 10 10 10 10 10 10 9 9 10 9 10 9 9 9 9 9 9 8 8 8 8 8 8 7 7 7 7 6 6 6 6 5 5 5 4 4 4
9 9 9 9 9 9 9 9 9 9 9 9 9 9 9 9 9 9 9 9 9 8 8 8 8 8 8 7 7 7 7 6 6 6 6 6 5 5 5 5 4 4 4 3
9 9 9 8 8 8 8 8 8 8 8 8 8 8 8 8 8 8 8 8 8 8 8 7 7 7 7 7 7 6 6 6 6 5 5 5 5 4 4 4 4 3 3 3
8 8 8 8 8 8 7 7 7 7 7 7 7 7 7 7 7 7 7 7 7 7 7 7 6 6 6 6 6 6 6 5 5 5 4 4 4 3 3 3 3 3 2 2
7 7 7 7 7 7 7 7 6 6 6 6 6 6 6 6 7 7 7 6 6 6 6 6 6 6 6 6 5 5 5 5 4 4 4 4 3 3 3 2 2 2 2 2
7 7 7 7 6 6 6 6 6 6 6 6 6 6 6 6 6 6 6 6 6 6 5 5 5 5 5 5 5 5 5 4 4 4 3 3 2 2 2 2 2 2 1 1
7 6 6 6 6 6 6 6 5 5 5 5 5 5 5 5 5 5 5 5 5 5 5 5 5 5 5 4 4 4 4 4 3 3 3 2 2 2 2 2 1 1 1 1
6 6 6 5 5 5 5 5 5 5 5 5 5 5 5 4 4 4 4 4 4 4 4 4 4 4 4 4 3 3 3 3 3 2 2 2 2 1 1 1 1 1 0 0
5 5 5 5 5 5 5 5 5 4 4 4 4 4 4 4 4 4 4 4 3 3 3 3 3 3 3 3 3 3 2 2 2 2 2 1 1 1 1 1 1 0 0 -0
4 4 4 4 4 4 4 4 4 4 4 4 4 3 3 3 3 3 3 3 3 3 3 3 3 2 2 2 2 2 2 2 1 1 1 1 1 1 0 0 0 -0 -0 -0
4 4 4 4 4 3 3 3 3 3 3 3 3 3 3 3 2 2 2 2 2 2 2 2 2 2 2 2 1 1 1 1 1 1 1 0 0 0 0 -0 -0 -0 -1 -1
3 3 3 3 3 3 3 3 3 3 3 2 2 2 2 2 2 2 2 2 1 1 1 1 1 1 1 1 1 1 1 0 0 0 0 0 -0 -0 -0 -0 -1 -1 -1 -1
3 3 3 2 2 2 2 2 2 2 2 2 2 2 2 1 1 1 1 1 1 1 1 0 0 0 0 0 0 -0 -0 -0 -0 -0 -0 -0 -0 -1 -1 -1 -1 -1 -1 -1
2 2 2 2 2 2 2 2 2 1 1 1 1 1 1 1 1 0 0 0 0 0 -0 -0 -0 -0 -0 -0 -0 -1 -1 -1 -1 -1 -1 -1 -1 -1 -1 -1 -1 -1 -1 -2
2 2 1 1 1 1 1 1 1 1 1 1 1 0 0 0 0 0 -0 -0 -0 -0 -1 -1 -1 -1 -1 -1 -1 -1 -1 -1 -1 -1 -1 -1 -1 -1 -1 -1 -2 -2 -2 -2
Wind_Speed
7 6 4 5 6 5 6 7 8 8 8 9 7 7 5 3 2 2 3 4 5 6 5 5 5 5 5 5 5 6 6 5 5 4 4 4 3 2 2 2 2 3 2 2
4 4 4 5 6 6 7 7 8 7 8 7 5 4 3 2 2 2 3 5 6 6 6 6 6 6 5 5 5 6 6 6 5 4 4 4 3 3 3 2 2 3 2 2
4 5 4 6 6 5 4 3 5 7 8 6 3 3 4 3 3 4 5 4 5 6 7 7 7 7 7 6 5 6 6 5 5 5 5 4 4 4 3 2 2 2 1 1
2 2 6 7 4 3 3 3 3 3 4 4 4 4 3 3 3 4 4 4 4 5 5 5 5 5 5 5 5 6 6 6 5 5 5 4 4 4 3 2 2 2 1 1
2 4 7 6 4 2 3 3 3 2 4 3 1 2 3 3 2 4 4 4 4 4 5 4 5 5 6 5 5 5 5 6 6 6 6 5 4 4 3 2 2 1 1 1
3 4 6 6 5 4 1 3 5 3 3 2 2 1 5 5 2 1 1 2 2 2 2 3 4 5 6 6 5 6 6 6 6 6 6 6 5 4 2 2 2 2 1 0
5 6 6 5 4 2 2 6 5 3 2 1 1 4 5 3 2 1 0 1 2 3 3 3 3 5 6 5 6 6 4 4 5 5 6 6 4 3 3 2 2 1 1 1
3 4 6 4 2 2 5 4 3 2 2 1 2 2 2 2 2 2 1 1 2 3 2 2 3 5 5 5 4 4 4 4 4 4 5 4 4 3 3 3 3 1 1 1
6 6 4 1 1 2 1 1 2 2 3 1 1 2 2 2 2 2 1 1 2 3 2 1 2 4 5 3 3 4 4 4 4 4 4 4 4 4 3 2 2 2 2 1
3 4 4 3 3 3 2 2 3 2 2 1 1 2 2 2 2 2 1 1 1 2 2 1 1 2 3 3 3 4 5 4 4 4 4 3 3 3 3 3 3 2 2 2
5 6 5 4 4 3 4 4 3 3 2 2 1 2 2 2 2 2 1 1 1 2 2 2 2 2 2 3 4 4 4 4 4 4 4 4 3 3 3 3 4 4 3 3
6 6 4 5 5 3 3 4 4 3 3 3 2 2 3 3 2 2 1 1 1 1 1 1 2 2 2 3 4 4 4 4 3 4 3 3 3 1 1 1 1 2 2 2
5 4 4 4 3 2 3 4 4 3 3 4 4 3 2 3 2 2 2 1 2 2 2 2 2 1 2 3 3 4 4 4 3 4 4 4 3 3 2 1 2 2 2 1
3 1 2 2 3 3 3 3 3 3 3 3 3 3 3 2 2 2 2 2 2 2 2 2 2 2 2 2 3 3 3 3 3 3 3 4 3 3 3 3 1 1 1 1
3 2 3 3 2 3 3 2 3 4 4 4 4 3 3 2 3 3 2 1 1 1 1 2 2 2 2 2 3 3 3 3 3 3 3 3 3 3 2 2 2 1 0 1
2 2 1 2 3 3 4 3 3 4 4 4 4 4 4 3 2 2 1 1 2 2 2 2 2 2 2 2 2 2 2 4 4 3 3 3 3 3 2 2 2 2 2 1
1 2 3 3 3 4 4 4 4 4 4 4 5 4 3 2 1 2 2 1 1 1 1 2 2 2 2 3 3 3 3 3 4 3 3 3 3 3 3 3 2 2 2 2
3 3 3 3 3 3 4 4 4 3 4 4 4 3 2 2 2 2 2 1 1 2 1 1 1 1 2 3 4 3 3 3 3 3 3 3 3 3 3 3 3 2 1 1
1 1 2 2 3 3 3 3 3 3 3 3 3 2 2 2 2 1 1 1 1 1 2 2 1 2 2 3 4 3 3 3 3 2 3 3 3 3 3 3 3 2 2 1
2 2 2 2 3 2 3 3 3 3 3 2 2 2 2 2 1 0 1 0 2 2 2 1 2 2 1 2 3 3 3 4 3 3 3 3 3 3 3 3 3 2 2 2
3 3 3 3 4 4 3 3 2 3 3 3 2 2 2 2 1 1 1 1 2 1 1 2 1 1 1 2 3 3 3 3 3 3 3 3 3 3 3 3 2 2 2 2
3 3 3 4 4 4 4 3 2 3 3 3 2 2 1 1 1 1 1 2 2 1 1 1 1 2 2 3 3 3 3 3 3 3 3 3 3 3 3 3 2 2 2 2
3 3 4 4 4 4 4 3 3 2 2 3 3 2 2 2 1 1 2 2 1 1 1 1 1 2 3 3 2 2 3 3 2 2 2 3 3 3 3 3 2 2 2 2
4 4 4 4 3 3 4 4 4 3 3 3 2 2 2 1 1 1 1 1 1 2 2 2 2 3 4 3 2 2 2 2 2 2 2 2 2 2 2 2 2 2 2 2
4 4 4 4 4 3 4 4 3 3 2 2 2 2 1 1 1 1 1 1 1 2 2 1 2 3 3 2 2 2 1 1 2 2 2 2 2 2 2 2 2 2 2 2
4 3 4 4 3 3 3 2 2 2 2 2 2 2 1 1 1 1 1 1 2 2 2 2 2 2 2 2 2 1 1 1 1 1 1 1 1 1 1 1 1 2 2 2
3 3 3 3 3 3 2 2 2 2 1 1 1 1 0 1 1 1 1 1 2 2 2 1 2 2 2 2 2 2 1 1 1 1 1 1 1 1 1 1 1 1 2 2
Wind_Direction
238 241 232 249 260 239 214 212 217 245 248 264 267 262 253 237 217 176 188 186 185 192 197 192 187 187 185 184 180 172 167 174 183 182 171 159 152 149 141 137 138 143 128 104
275 262 277 279 275 256 238 230 233 250 259 267 270 269 263 229 186 188 211 205 194 192 191 193 193 190 187 185 181 170 169 177 173 166 158 151 147 138 124 119 121 121 131 130
267 289 327 282 262 242 236 235 213 234 251 271 283 268 244 232 212 207 214 212 200 192 193 197 198 190 189 189 179 169 171 170 165 162 157 155 146 128 132 139 122 121 131 124
251 319 252 249 263 240 229 257 256 248 257 251 239 245 243 226 210 222 218 205 208 203 197 196 190 184 176 166 165 169 171 171 167 160 157 151 145 148 155 148 143 143 154 174
183 236 267 284 289 269 227 266 321 304 302 294 270 16 337 296 243 223 212 205 203 202 193 181 177 171 156 155 158 164 177 179 175 165 160 159 162 168 162 148 150 163 155 148
180 212 240 255 283 293 143 267 310 312 299 301 58 25 287 302 293 265 225 197 185 167 148 161 172 158 153 161 165 180 189 188 179 169 166 170 172 167 159 152 160 152 135 173
207 228 255 269 297 33 158 263 287 280 275 305 215 232 264 295 315 314 268 156 134 131 143 171 163 151 157 166 185 196 188 178 173 169 168 167 161 157 149 143 134 137 142 295
191 219 257 297 68 156 237 267 282 288 280 284 279 300 328 346 339 342 359 109 128 129 138 153 151 151 159 179 194 184 171 166 168 170 166 156 150 152 152 150 149 162 168 314
199 219 250 248 198 253 228 252 269 276 281 275 326 311 322 331 329 319 297 175 149 140 138 136 156 154 162 188 178 163 157 163 170 167 161 155 157 159 157 159 165 181 192 224
265 272 289 305 317 331 328 296 292 290 289 286 268 261 276 295 302 301 301 245 162 134 136 151 173 157 165 173 166 155 159 169 171 166 163 159 162 168 169 178 181 189 204 223
261 280 302 321 325 324 330 334 334 332 323 302 293 287 264 258 256 258 265 266 179 173 175 191 185 174 166 159 153 153 159 165 169 170 169 167 169 181 185 201 193 190 205 205
240 249 238 264 280 307 316 314 310 323 332 324 305 288 282 266 248 229 214 210 187 164 167 194 185 187 180 166 160 158 161 169 171 168 169 167 159 126 44 154 166 177 188 193
236 251 236 255 275 292 290 305 316 323 320 319 317 299 285 283 273 247 223 208 206 192 189 192 193 211 211 181 165 165 170 177 172 169 167 166 163 162 153 40 52 85 108 109
267 257 274 281 285 305 314 320 332 343 341 329 321 321 318 307 299 275 248 228 208 188 185 188 204 238 233 192 172 174 174 179 172 173 170 171 174 174 169 167 164 336 340 360
273 254 241 268 310 327 333 343 350 337 331 331 329 327 321 300 289 281 279 253 156 142 173 190 216 258 247 187 178 178 175 174 169 164 161 162 161 156 157 166 170 173 310 320
279 313 319 317 313 315 325 329 321 311 311 313 317 311 302 285 284 293 290 216 172 197 211 210 226 250 230 177 167 166 171 165 152 154 155 153 154 158 166 170 174 186 206 226
241 295 302 300 296 301 302 296 290 292 302 306 302 299 305 310 323 322 320 298 215 212 205 196 218 222 189 168 157 162 160 163 155 153 164 168 166 170 175 174 182 196 223 229
218 225 238 248 262 288 303 307 303 305 302 302 308 314 319 289 265 270 293 347 48 23 347 284 219 179 167 160 155 155 159 162 163 165 164 170 170 171 171 177 184 192 209 210
251 245 271 276 269 269 284 292 293 298 305 312 316 305 296 286 271 270 326 93 104 303 302 286 188 137 157 167 149 145 148 151 153 156 156 159 158 165 173 183 189 195 192 185
346 330 321 316 317 301 290 287 290 304 304 305 308 303 304 302 286 202 113 152 259 253 242 228 158 151 162 169 147 143 151 157 162 161 157 163 169 175 180 187 187 188 193 198
338 338 336 332 329 324 308 296 302 303 301 300 286 269 267 276 262 170 141 275 291 278 217 191 160 178 179 156 135 141 152 156 158 161 164 170 175 177 180 184 184 189 194 202
329 327 321 323 324 319 316 310 304 304 307 309 304 280 268 271 259 265 248 237 240 225 148 169 177 181 161 134 127 139 148 152 155 161 168 176 180 182 184 185 191 198 203 211
311 309 307 309 305 303 317 320 312 301 295 298 296 284 270 262 234 207 259 260 200 171 134 154 153 145 129 112 119 133 144 153 162 168 177 183 184 185 187 187 193 198 200 210
307 307 304 306 318 322 312 306 306 301 290 289 285 276 267 266 292 269 225 184 153 138 126 141 134 124 105 98 110 118 136 155 163 170 175 173 172 176 182 185 187 198 208 216
298 302 307 313 314 303 292 301 312 312 313 319 322 323 308 205 206 221 143 139 146 125 105 128 125 107 96 103 110 114 128 156 167 163 158 160 169 172 177 183 185 197 210 218
301 297 288 281 281 285 289 291 291 294 306 328 333 340 349 21 108 122 112 112 119 114 101 103 108 100 96 106 109 108 111 111 98 113 139 148 153 160 169 180 192 198 202 212
303 301 302 307 304 295 291 284 281 288 280 264 309 330 19 66 87 95 97 101 104 98 91 89 92 95 97 100 96 91 89 88 90 102 118 131 146 165 183 185 194 193 193 198
Height
1515 1512 1511 1510 1508 1507 1511 1513 1518 1512 1507 1501 1496 1494 1492 1491 1490 1490 1490 1490 1491 1492 1493 1494 1496 1497 1498 1499 1501 1503 1504 1505 1506 1508 1509 1510 1510 1511 1511 1512 1512 1512 1511 1511
1514 1509 1509 1508 1505 1504 1504 1505 1506 1504 1502 1494 1492 1491 1490 1489 1489 1488 1489 1489 1489 1490 1491 1492 1492 1494 1495 1496 1498 1499 1501 1502 1503 1504 1505 1506 1507 1508 1508 1509 1509 1509 1508 1508
1521 1512 1510 1512 1505 1502 1502 1500 1501 1503 1499 1492 1491 1490 1488 1487 1486 1486 1486 1486 1487 1487 1488 1489 1490 1491 1492 1494 1495 1496 1497 1499 1500 1501 1502 1503 1504 1505 1505 1506 1506 1506 1505 1505
1521 1517 1521 1508 1498 1496 1497 1496 1495 1493 1492 1490 1488 1487 1486 1485 1484 1484 1484 1484 1484 1485 1486 1487 1488 1489 1490 1491 1492 1493 1494 1495 1497 1498 1499 1500 1500 1501 1502 1502 1503 1503 1502 1502
1522 1521 1514 1504 1497 1495 1496 1496 1494 1492 1489 1488 1486 1485 1485 1484 1484 1483 1482 1482 1482 1483 1484 1485 1485 1486 1488 1489 1489 1490 1491 1492 1494 1495 1496 1496 1497 1498 1499 1499 1500 1500 1499 1499
1519 1518 1516 1504 1495 1491 1494 1498 1492 1490 1488 1486 1485 1489 1487 1484 1482 1481 1481 1480 1480 1481 1482 1482 1483 1484 1485 1485 1487 1487 1488 1490 1491 1492 1493 1493 1494 1495 1496 1496 1496 1496 1496 1496
1517 1516 1508 1498 1493 1492 1502 1500 1491 1488 1487 1486 1485 1486 1484 1482 1481 1480 1479 1479 1479 1479 1480 1480 1481 1481 1482 1483 1484 1485 1486 1487 1488 1489 1489 1490 1491 1492 1492 1493 1493 1493 1493 1493
1515 1515 1510 1494 1493 1496 1496 1491 1489 1487 1486 1484 1483 1482 1481 1480 1479 1478 1478 1477 1477 1477 1477 1478 1478 1479 1479 1480 1481 1482 1483 1484 1485 1486 1486 1487 1488 1488 1489 1489 1489 1489 1489 1489
1506 1504 1496 1493 1492 1492 1490 1489 1487 1486 1485 1483 1482 1480 1479 1479 1478 1477 1476 1476 1475 1475 1476 1476 1477 1477 1477 1478 1479 1479 1480 1481 1482 1482 1483 1483 1484 1485 1485 1486 1486 1486 1486 1486
1501 1496 1493 1492 1490 1489 1488 1487 1486 1485 1483 1482 1480 1479 1478 1477 1476 1475 1475 1474 1473 1473 1474 1474 1475 1475 1475 1475 1476 1476 1477 1477 1478 1479 1479 1480 1481 1481 1482 1482 1482 1483 1482 1482
1499 1494 1491 1489 1489 1488 1487 1485 1484 1483 1482 1481 1479 1477 1476 1475 1474 1473 1473 1472 1472 1472 1471 1472 1472 1473 1473 1473 1473 1473 1474 1474 1475 1476 1476 1476 1477 1478 1478 1479 1479 1480 1479 1479
1495 1491 1491 1489 1487 1487 1485 1483 1482 1481 1479 1478 1477 1475 1474 1472 1471 1471 1470 1470 1470 1470 1470 1470 1470 1470 1470 1470 1470 1470 1470 1471 1472 1472 1473 1473 1474 1474 1475 1476 1476 1476 1476 1476
1488 1487 1487 1486 1485 1484 1483 1481 1480 1478 1476 1475 1474 1473 1471 1470 1469 1468 1468 1467 1467 1467 1467 1467 1467 1467 1467 1468 1468 1468 1467 1468 1469 1469 1469 1470 1470 1470 1471 1472 1472 1473 1473 1473
1486 1485 1483 1483 1482 1482 1480 1479 1477 1476 1474 1473 1471 1470 1469 1467 1466 1466 1465 1465 1464 1464 1464 1464 1465 1465 1465 1465 1465 1465 1465 1466 1466 1466 1467 1467 1467 1467 1468 1468 1469 1469 1469 1470
1483 1482 1481 1480 1480 1478 1477 1476 1474 1473 1472 1470 1469 1467 1466 1465 1464 1463 1462 1462 1462 1462 1461 1461 1462 1462 1462 1462 1462 1462 1462 1462 1463 1463 1464 1464 1465 1465 1466 1466 1466 1466 1467 1467
1480 1479 1479 1477 1476 1475 1474 1473 1472 1470 1469 1468 1466 1465 1464 1463 1462 1461 1460 1459 1459 1458 1458 1458 1458 1459 1459 1459 1459 1459 1459 1460 1460 1461 1461 1461 1462 1463 1463 1464 1464 1464 1464 1464
1477 1476 1475 1474 1473 1472 1471 1470 1469 1467 1466 1465 1463 1462 1461 1460 1459 1458 1457 1457 1456 1456 1456 1456 1456 1456 1456 1456 1456 1456 1456 1457 1457 1458 1458 1459 1459 1460 1461 1461 1461 1461 1461 1461
1475 1474 1474 1473 1471 1470 1469 1467 1466 1465 1463 1462 1460 1459 1458 1457 1456 1455 1454 1454 1453 1453 1453 1453 1453 1453 1453 1453 1453 1453 1454 1454 1454 1455 1455 1456 1457 1457 1458 1458 1458 1458 1458 1459
1473 1472 1472 1471 1469 1468 1466 1465 1463 1462 1460 1459 1458 1456 1455 1454 1453 1452 1451 1450 1450 1450 1449 1449 1449 1449 1449 1450 1450 1451 1451 1451 1451 1452 1453 1454 1455 1455 1455 1455 1456 1456 1456 1456
1471 1470 1470 1468 1467 1466 1464 1462 1461 1459 1458 1456 1455 1454 1452 1451 1450 1449 1448 1448 1447 1447 1447 1446 1446 1446 1447 1447 1448 1448 1448 1448 1449 1449 1450 1451 1452 1452 1453 1453 1453 1453 1453 1454
1469 1468 1467 1466 1464 1463 1462 1460 1458 1456 1455 1454 1452 1451 1450 1448 1447 1446 1445 1444 1445 1445 1444 1444 1443 1443 1444 1444 1445 1445 1445 1446 1446 1447 1448 1449 1449 1449 1450 1450 1450 1451 1451 1451
1468 1466 1465 1463 1462 1460 1459 1457 1456 1454 1453 1451 1449 1448 1447 1445 1444 1443 1443 1443 1442 1442 1441 1441 1441 1441 1441 1442 1442 1442 1443 1443 1444 1445 1445 1446 1446 1447 1447 1447 1448 1448 1448 1448
1466 1464 1463 1461 1459 1457 1456 1454 1453 1451 1450 1448 1446 1445 1443 1442 1442 1441 1440 1440 1439 1439 1438 1438 1438 1439 1439 1439 1439 1440 1440 1441 1441 1442 1443 1443 1443 1444 1444 1444 1445 1445 1445 1446
1463 1461 1460 1458 1456 1454 1452 1451 1450 1448 1446 1445 1443 1442 1441 1440 1438 1438 1437 1437 1436 1436 1436 1436 1436 1436 1437 1437 1437 1438 1438 1438 1439 1439 1440 1440 1440 1441 1441 1442 1442 1443 1443 1443
1461 1459 1457 1455 1453 1451 1450 1448 1446 1445 1443 1441 1440 1439 1438 1437 1436 1435 1434 1434 1434 1434 1434 1434 1435 1435 1435 1435 1435 1435 1435 1436 1436 1437 1437 1437 1438 1438 1438 1439 1439 1440 1440 1440
1457 1456 1454 1452 1451 1449 1447 1445 1444 1442 1440 1439 1437 1436 1435 1435 1434 1433 1432 1432 1432 1432 1432 1432 1433 1433 1433 1433 1433 1433 1433 1433 1434 1434 1434 1435 1435 1435 1436 1436 1436 1437 1437 1437
1454 1452 1451 1449 1447 1446 1444 1443 1441 1440 1438 1437 1435 1434 1434 1433 1432 1431 1431 1431 1431 1431 1431 1431 1431 1431 1431 1431 1431 1431 1432 1432 1432 1432 1432 1433 1433 1433 1433 1433 1433 1433 1434 1434